Location: Mazaugues
(43.3476°N, 5.9222°E)
Time: 06:24:25
(UTC+00:00)

Daily predictions for brighter satellites

Satellite Brightness Start Highest point End
(mag) Time Altitude Azimuth Time Altitude Azimuth Time Altitude Azimuth
Meteor 2-6 Rocket 4.4 18:58:38 10° N 19:04:16 86° W 19:10:01 10° S
Cosmos 220 Rocket 4.3 19:00:18 10° NNW 19:04:31 68° WSW 19:08:43 10° S
USA 238 DEB 3.9 18:58:40 10° S 19:04:55 48° ESE 19:11:25 10° NE
USA 238 3.9 18:58:47 10° S 19:05:01 48° ESE 19:11:30 10° NE
IRIDIUM 114 4.4 19:01:20 10° SSE 19:06:26 58° E 19:11:34 10° N
SPOT 3 Rocket 4.4 19:02:01 10° SE 19:06:35 32° ENE 19:11:08 10° N
Cosmos 1697 Rocket 2.7 19:01:24 10° NNW 19:07:04 88° ENE 19:12:40 10° SSE
Cosmos 1867 3.6 19:01:40 10° SSW 19:07:04 73° ESE 19:12:31 10° NE
CENTAUR R/B 3.2 19:03:59 10° SSE 19:08:50 29° ESE 19:14:22 10° NE
Cosmos 1666 Rocket 4.1 19:05:23 10° SSE 19:09:23 38° E 19:13:25 10° NNE
MOS 1 Rocket 3.7 19:04:00 10° NNE 19:09:27 89° E 19:14:39 10° SSW
Cosmos 1954 Rocket 4.4 19:06:53 10° S 19:11:54 44° ESE 19:16:56 10° NNE
IRIDIUM 103 4.3 19:10:23 10° S 19:15:33 71° E 19:20:46 10° N
DMSP B5D2-2 4.3 19:10:41 10° NNE 19:15:47 52° E 19:20:54 10° S
FREGAT/IRIS 2.2 19:13:41 10° SSE 19:16:17 69° ENE 19:18:55 10° N
Cosmos 1821 Rocket 4.0 19:10:39 10° S 19:16:45 71° E 19:23:00 10° NNE
Ariane Rocket 3.0 19:12:15 10° SSE 19:17:18 85° ENE 19:22:23 10° NNW
Cosmos 405 Rocket 4.5 19:15:28 10° ESE 19:17:25 14° E 19:19:24 10° NE
Intercosmos 25 3.0 19:16:14 10° N 19:19:47 59° E 19:22:54 10° SSE
Cosmos 1805 Rocket 3.8 19:15:30 10° SSW 19:19:55 77° W 19:24:25 10° N
Cosmos 1812 2.8 19:17:32 10° N 19:21:24 81° W 19:25:14 10° S
Cosmos 407 Rocket 3.9 19:16:57 10° SSW 19:22:15 72° WNW 19:27:32 10° NNE
SJ-6B 2.8 19:21:17 10° SSE 19:25:18 85° ENE 19:29:16 10° N
Cosmos 1862 4.4 19:22:22 10° SSW 19:26:19 51° W 19:30:18 10° N
Cosmos 1190 Rocket 4.2 19:21:09 10° SSW 19:26:27 82° WNW 19:31:47 10° NNE
deb Kosmos-1763 4.1 19:24:10 10° SSW 19:27:47 84° WNW 19:31:27 10° NNE
Cosmos 1140 Rocket 3.7 19:23:01 10° SSW 19:28:16 82° WNW 19:33:34 10° NNE
Resurs 1-3 3.9 19:26:12 10° SE 19:30:25 49° ENE 19:34:39 10° N
OBJECT-B 1.1 19:29:49 10° SSE 19:33:01 50° ENE 19:36:14 10° N
Cosmos 1441 Rocket 4.4 19:29:57 10° SSW 19:33:33 45° WNW 19:37:10 10° N
Cosmos 2084 Rocket 4.0 19:30:04 10° S 19:33:49 33° ESE 19:37:39 10° NE
IRIDIUM 106 4.5 19:28:38 10° S 19:33:50 80° W 19:39:05 10° N
Cosmos 1633 Rocket 3.1 19:31:49 10° S 19:36:11 63° E 19:40:33 10° NNE
Cosmos 1184 Rocket 3.0 19:33:54 10° S 19:37:04 47° E 19:40:16 10° NNE
SL-08 RB Rocket 4.4 19:33:41 10° S 19:38:14 57° W 19:42:51 10° NNW
Cosmos 921 Rocket 3.4 19:38:01 10° N 19:42:03 44° ENE 19:45:04 16° SE
Cosmos 1535 Rocket 4.5 19:36:31 10° S 19:42:33 64° E 19:48:36 10° NNE
Cosmos 2123 Rocket 4.0 19:37:18 10° N 19:43:30 65° E 19:49:44 10° SSE
Meteor 1-27 Rocket 4.1 19:42:51 10° NNW 19:48:48 74° W 19:54:41 10° S
Cosmos 1605 Rocket 4.2 19:45:11 10° SSE 19:51:01 50° E 19:56:52 10° NNE
Okean 1 4.3 19:50:53 10° NNE 19:54:28 29° ENE 19:56:09 22° ESE
Cosmos 1707 Rocket 4.1 19:50:28 10° NNW 19:54:44 57° W 19:58:57 10° S
NOSS 3-2 (A) 3.5 19:49:24 10° SW 19:55:03 80° NW 20:01:32 10° NE
CZ-2C R/B 3.0 19:50:15 10° N 19:55:25 66° WNW 20:00:37 10° SSW
Cosmos 192 4.4 19:52:32 10° NNW 19:57:28 84° WSW 20:01:41 14° SSE
USA 267 3.7 19:53:13 10° ENE 19:59:11 37° SE 20:05:07 10° SSW
SL-4 R/B 3.9 19:59:20 10° WNW 20:02:43 25° N 20:05:54 10° NE
SL-16 R/B 2.8 19:57:50 10° NNW 20:03:14 42° ENE 20:06:28 22° ESE
BREEZE-M DEB (TANK) 3.6 20:01:25 10° WNW 20:03:56 37° N 20:09:33 10° ENE
SL-27 R/B 3.1 20:04:28 30° ESE 20:04:36 30° ESE 20:07:33 10° NE
BREEZE-M DEB (TANK) 4.1 20:01:50 10° WNW 20:04:54 17° WSW 20:06:54 10° SSW
NOSS 3-2 (C) 3.2 20:00:05 10° SSW 20:05:41 78° ESE 20:12:07 10° NE
Cosmos 1470 Rocket 3.4 20:01:36 10° S 20:05:59 74° E 20:10:21 10° NNE
Cosmos 2242 Rocket 4.0 20:02:57 10° N 20:07:11 43° ENE 20:09:08 27° SE
Cosmos 2082 Rocket 3.5 20:04:57 10° SW 20:10:20 43° WNW 20:15:45 10° NNE
BREEZE-M DEB (TANK) 3.9 20:09:12 10° WNW 20:11:23 21° N 20:12:31 14° NE
ERS-1 Rocket 4.1 20:16:14 23° E 20:17:57 28° ENE 20:22:10 10° N
Meteor 1-4 Rocket 4.1 20:15:33 10° NNW 20:18:40 32° W 20:21:46 10° SSW
Cosmos 2322 Rocket 2.7 20:15:06 10° NNW 20:20:36 47° ENE 20:23:15 28° ESE
Cosmos 1862 Rocket 4.0 20:18:09 10° NNW 20:22:33 61° W 20:25:58 16° S
Cosmos 1850 Rocket 3.9 20:17:27 10° SSW 20:22:43 74° ESE 20:27:59 10° NNE
Meteor 1-25 Rocket 4.2 20:18:57 10° SSW 20:24:31 83° W 20:30:12 10° N
Cosmos 1500 4.4 20:25:36 25° ENE 20:25:36 25° ENE 20:28:06 10° NNE
SPOT 1/Viking Rocket 3.9 20:23:32 30° SE 20:25:45 48° ENE 20:30:47 10° N
USA 32 4.1 20:21:59 10° S 20:27:12 80° W 20:32:28 10° N
Cosmos 841 Rocket 4.1 20:23:12 10° N 20:28:08 40° ENE 20:29:56 30° ESE
Terra 3.3 20:27:56 20° E 20:28:53 22° ENE 20:32:28 10° NNE
Cosmos 2360 Rocket 3.3 20:24:37 10° N 20:29:39 31° NE 20:31:48 24° E
USA 276 2.7 20:26:33 10° NW 20:29:39 48° NNE 20:30:10 43° ENE
X-37B 0.4 20:27:02 10° WNW 20:30:11 80° SSW 20:30:22 75° SSE
ATLAS 3B R/B 2.9 20:24:38 10° S 20:30:47 43° ESE 20:36:59 10° NE
IGS 5A 3.5 20:29:39 41° SE 20:30:56 64° ENE 20:35:03 10° N
Meteor 1-18 Rocket 4.1 20:25:22 10° N 20:30:57 77° E 20:33:52 29° SSE
Cosmos 1238 Rocket 2.5 20:30:32 31° SSW 20:31:40 58° W 20:34:39 10° N
USA 234 4.3 20:29:00 13° E 20:34:10 38° NNE 20:40:06 10° NW
Cosmos 468 Rocket 4.0 20:31:53 10° NNW 20:37:12 80° WSW 20:39:43 32° S
Resurs 01 Rocket 2.4 20:34:56 19° SSW 20:37:55 48° W 20:42:13 10° NNW
Iridium 4 Rocket 4.4 20:38:43 23° ENE 20:38:43 23° ENE 20:41:31 10° NNE
Cosmos 1980 Rocket 3.7 20:33:27 10° NW 20:38:24 32° WSW 20:43:06 11° SSW
Cosmos 44 3.5 20:33:58 10° NNW 20:38:54 65° NE 20:40:36 40° ESE
Cosmos 1602 4.0 20:37:46 23° SSW 20:40:05 68° W 20:44:02 10° N
Lacrosse 5 1.9 20:35:03 10° NW 20:40:06 71° SW 20:41:50 41° SSE
CARTOSAT-1 4.1 20:40:31 38° E 20:41:03 40° ENE 20:45:06 10° N
Cosmos 1153 Rocket 4.4 20:36:52 19° S 20:41:28 79° E 20:47:41 10° N
Cosmos 1447 Rocket 4.5 20:35:26 10° N 20:41:49 88° E 20:45:26 27° S
GP-B 3.7 20:41:18 10° N 20:45:40 55° W 20:48:37 19° SSW
Cosmos 1933 Rocket 4.1 20:42:59 15° SSW 20:46:34 58° W 20:50:58 10° N
Cosmos 405 Rocket 4.1 20:50:04 13° SW 20:53:02 37° WNW 20:56:33 10° N
Spot 2 Rocket 3.5 20:51:17 38° S 20:53:16 80° WSW 20:58:24 10° NNW
COSMOS 2428 4.5 20:51:47 10° N 20:55:50 19° NE 20:57:48 16° ENE
Cosmos 1814 Rocket 4.2 20:50:43 10° NNW 20:55:53 56° ENE 20:56:56 47° ESE
Cosmos 1802 Rocket 4.3 20:54:58 40° SE 20:56:36 49° E 21:02:40 10° NNE
Cosmos 1869 Rocket 3.4 20:57:44 65° SE 20:58:12 73° E 21:02:39 10° NNE
CENTAUR R/B 3.2 20:53:08 10° SW 20:58:58 55° NW 21:05:54 10° NNE
Cosmos 1515 3.8 20:55:29 10° NNW 20:59:17 67° W 20:59:36 63° SW
Okean 1-7 3.0 20:56:52 10° NNW 21:01:10 75° W 21:01:51 60° SSW
Cosmos 1437 Rocket 3.2 21:03:20 10° NNW 21:07:01 50° W 21:07:19 48° WSW
Cosmos 1763 Rocket 4.3 21:06:19 10° NNW 21:11:24 46° WSW 21:13:14 33° SSW
Cosmos 1703 Rocket 4.2 21:07:14 10° NNW 21:11:27 51° W 21:12:20 43° SW
Cosmos 1570 Rocket 4.0 21:08:36 10° NNW 21:13:57 82° WSW 21:14:57 60° S
Cosmos 2333 Rocket 3.4 21:09:07 10° N 21:14:09 30° NE 21:15:19 28° ENE
ATLAS 5 CENTAUR R/B 3.2 21:11:25 10° NNW 21:14:17 36° NE 21:14:58 34° ENE
SPOT 5 2.5 21:17:39 82° NE 21:17:39 82° NE 21:22:01 10° NNW
Meteor 1-5 Rocket 4.2 21:18:35 47° S 21:20:28 89° E 21:26:25 10° N
Cosmos 2208 Rocket 3.9 21:20:12 10° NNW 21:25:27 78° WSW 21:25:57 70° SSW
Cosmos 1733 Rocket 4.2 21:29:41 33° NE 21:29:41 33° NE 21:32:28 10° NNE
Meteor 1-11 Rocket 3.6 21:31:46 71° SE 21:32:13 76° E 21:38:01 10° NNE
Lacrosse 4 Rocket 2.6 21:37:37 35° NNE 21:37:37 35° NNE 21:40:06 10° NNE
Tsikada Rocket 4.1 21:32:01 10° N 21:38:16 59° ENE 21:38:46 57° E
Cosmos 2100 Rocket 4.3 21:36:57 34° SW 21:39:35 60° W 21:45:40 10° N
USA 267 3.5 21:35:57 10° NE 21:42:27 70° NW 21:48:56 10° WSW
SL-4 R/B 3.7 21:39:55 10° NW 21:42:58 26° N 21:42:58 26° N
Meteor 2-4 Rocket 4.3 21:38:15 10° NNW 21:43:33 47° W 21:44:39 41° SW
Cosmos 2173 Rocket 4.3 21:41:11 36° SW 21:43:34 59° W 21:49:37 10° N
Cosmos 540 Rocket 4.1 21:39:10 10° NNW 21:44:06 46° WSW 21:44:28 45° WSW
Cosmos 2219 Rocket 2.8 21:38:42 10° NNW 21:44:07 43° ENE 21:44:23 43° ENE
SL-16 R/B 3.5 21:42:16 10° NW 21:47:09 30° WSW 21:48:19 28° SW
Cosmos 1725 Rocket 3.9 21:55:17 70° SSW 21:56:05 85° W 22:02:27 10° N
ERS-1 Rocket 3.9 21:56:14 37° WSW 21:56:35 37° W 22:01:14 10° NNW
Meteor 1-23 Rocket 4.2 21:51:31 10° N 21:57:14 76° ENE 21:57:14 76° ENE
Cosmos 2322 3.7 21:51:54 10° NNW 21:57:25 76° NE 21:57:25 76° NE
SL-08 R/B 4.4 21:59:40 69° SW 22:00:19 77° W 22:06:27 10° N
Cosmos 1536 4.4 22:03:05 33° NNW 22:03:05 33° NNW 22:05:29 10° N
Cosmos 2016 Rocket 4.3 22:02:20 50° SW 22:03:47 63° W 22:10:08 10° N
Cosmos 2322 Rocket 3.6 21:59:39 10° NW 22:04:22 27° WSW 22:05:03 26° WSW
Terra 2.7 22:06:49 43° W 22:06:49 43° W 22:10:53 10° NNW
Cosmos 2333 4.3 22:06:42 10° NNW 22:12:06 76° WNW 22:12:06 76° WNW
Cosmos 2360 Rocket 2.9 22:08:26 10° NW 22:13:33 42° W 22:13:33 42° W
USA 234 3.1 22:16:20 80° SE 22:16:46 88° SW 22:23:21 10° NW
ATLAS 3B R/B 3.6 22:15:15 10° WSW 22:21:28 43° NW 22:27:47 10° NNE
Lacrosse 5 4.4 22:20:40 10° W 22:21:01 11° WSW 22:21:01 11° WSW
MOS 1-B Rocket 3.9 22:18:01 10° NNE 22:23:10 76° N 22:23:10 76° N
Cosmos 2297 Rocket 4.1 22:32:12 19° ENE 22:32:12 19° ENE 22:34:11 10° NE
Cosmos 2233 Rocket 4.1 22:34:08 68° W 22:34:16 68° W 22:40:35 10° N
Thor Agena Rocket 4.3 22:31:29 10° NNE 22:35:03 46° NNE 22:35:03 46° NNE
COSMOS 2428 3.1 22:35:03 10° NNW 22:39:48 61° NW 22:39:48 61° NW
Cosmos 44 Rocket 4.5 22:39:41 10° NW 22:42:56 40° NW 22:42:56 40° NW
Cosmos 1464 Rocket 4.5 22:46:12 51° NE 22:46:12 51° NE 22:51:11 10° NNE
Cosmos 2237 Rocket 3.0 22:39:46 10° NNW 22:44:34 44° NE 22:44:34 44° NE
NOSS 0 Rocket 4.1 22:46:13 10° NNW 22:51:50 70° N 22:51:50 70° N
Cosmos 2333 Rocket 3.2 22:53:08 10° NW 22:57:19 40° WNW 22:57:19 40° WNW
Lacrosse 4 Rocket 4.3 23:13:51 11° WNW 23:15:11 12° NW 23:16:58 10° NNW
Cosmos 2034 Rocket 4.3 23:19:27 62° NE 23:19:27 62° NE 23:24:47 10° NNE
Cosmos 2227 Rocket 3.3 23:22:00 37° NE 23:22:00 37° NE 23:25:30 10° NNE
Cosmos 2219 Rocket 3.8 23:23:01 10° NW 23:26:05 25° WNW 23:26:05 25° WNW
Cosmos 1607 4.2 23:41:33 10° NNW 23:47:25 67° NNE 23:47:25 67° NNE
